• In Uzbekistan
  • List of Countries
  • For 7 days
  • Water Temperature
  • Satellite Maps
  • Weather Map
  • Weather Widgets
  • user-avatar
    Login

    Hourly Weather São Luís

    Today, 23 August, Wednesday

    Time Temperature Precipitation Wind Pressure Humidity
    00:00 +27°C° 0 mm 3 mps 759 mmHg 90%
    01:00 +27°C° 1.1 mm 3 mps 759 mmHg 91%
    02:00 +27°C° 1.1 mm 3 mps 758 mmHg 92%
    03:00 +26°C° 0 mm 3 mps 758 mmHg 93%
    04:00 +26°C° 0.9 mm 3 mps 758 mmHg 92%
    05:00 +26°C° 0.9 mm 3 mps 759 mmHg 91%
    06:00 +26°C° 0.9 mm 3 mps 759 mmHg 90%
    07:00 +27°C° 0.2 mm 3 mps 759 mmHg 84%
    08:00 +28°C° 0.2 mm 3 mps 759 mmHg 78%
    09:00 +30°C° 0.2 mm 3 mps 760 mmHg 72%
    10:00 +31°C° 0.1 mm 3 mps 759 mmHg 65%
    11:00 +32°C° 0.1 mm 2 mps 759 mmHg 58%
    12:00 +35°C° 0.1 mm 2 mps 759 mmHg 51%
    13:00 +35°C° 0 mm 2 mps 758 mmHg 50%
    14:00 +35°C° 0 mm 2 mps 758 mmHg 50%
    15:00 +35°C° 0 mm 2 mps 757 mmHg 49%
    16:00 +34°C° 0 mm 2 mps 757 mmHg 55%
    17:00 +31°C° 0 mm 2 mps 757 mmHg 61%
    18:00 +30°C° 0 mm 2 mps 757 mmHg 67%
    19:00 +29°C° 0 mm 2 mps 757 mmHg 72%
    20:00 +28°C° 0 mm 3 mps 757 mmHg 76%
    21:00 +27°C° 0 mm 3 mps 758 mmHg 80%
    22:00 +27°C° 0 mm 3 mps 758 mmHg 81%
    23:00 +27°C° 0 mm 4 mps 758 mmHg 82%

    Tomorrow, 24 August, Thursday

    Time Temperature Precipitation Wind Pressure Humidity
    00:00 +27°C° 0 mm 4 mps 759 mmHg 83%
    01:00 +27°C° 0 mm 4 mps 758 mmHg 82%
    02:00 +27°C° 0 mm 4 mps 758 mmHg 82%
    03:00 +27°C° 0 mm 4 mps 758 mmHg 81%
    04:00 +27°C° 0.6 mm 4 mps 758 mmHg 84%
    05:00 +26°C° 0.6 mm 4 mps 758 mmHg 87%
    06:00 +26°C° 0.6 mm 4 mps 759 mmHg 89%
    07:00 +27°C° 0.4 mm 4 mps 759 mmHg 84%
    08:00 +28°C° 0.4 mm 4 mps 760 mmHg 79%
    09:00 +29°C° 0.4 mm 4 mps 760 mmHg 74%
    10:00 +32°C° 0.1 mm 4 mps 760 mmHg 66%
    11:00 +33°C° 0.1 mm 4 mps 760 mmHg 57%
    12:00 +35°C° 0.1 mm 3 mps 759 mmHg 48%
    13:00 +35°C° 0 mm 3 mps 758 mmHg 47%
    14:00 +36°C° 0 mm 3 mps 757 mmHg 46%
    15:00 +36°C° 0 mm 3 mps 756 mmHg 44%
    16:00 +34°C° 0 mm 3 mps 757 mmHg 52%
    17:00 +31°C° 0 mm 3 mps 757 mmHg 60%
    18:00 +30°C° 0 mm 4 mps 757 mmHg 68%
    19:00 +29°C° 0 mm 4 mps 757 mmHg 71%
    20:00 +28°C° 0 mm 4 mps 758 mmHg 74%
    21:00 +28°C° 0 mm 4 mps 759 mmHg 77%
    22:00 +28°C° 0 mm 4 mps 759 mmHg 78%
    23:00 +28°C° 0 mm 4 mps 759 mmHg 79%

    Day after tomorrow, 25 August, Friday

    Time Temperature Precipitation Wind Pressure Humidity
    00:00 +27°C° 0 mm 4 mps 759 mmHg 80%
    01:00 +27°C° 0.3 mm 4 mps 759 mmHg 81%
    02:00 +27°C° 0.3 mm 4 mps 758 mmHg 83%
    03:00 +27°C° 0.3 mm 4 mps 758 mmHg 84%
    04:00 +27°C° 1.5 mm 5 mps 758 mmHg 86%
    05:00 +26°C° 1.5 mm 5 mps 758 mmHg 87%
    06:00 +26°C° 1.5 mm 5 mps 759 mmHg 89%
    07:00 +27°C° 0.6 mm 5 mps 759 mmHg 84%
    08:00 +28°C° 0.6 mm 5 mps 760 mmHg 80%
    09:00 +29°C° 0.6 mm 5 mps 760 mmHg 76%
    10:00 +32°C° 0 mm 4 mps 760 mmHg 67%
    11:00 +33°C° 0 mm 3 mps 759 mmHg 58%
    12:00 +35°C° 0 mm 3 mps 759 mmHg 48%
    13:00 +35°C° 0 mm 3 mps 758 mmHg 48%
    14:00 +35°C° 0 mm 3 mps 757 mmHg 48%
    15:00 +35°C° 0 mm 3 mps 757 mmHg 48%
    16:00 +34°C° 0 mm 3 mps 757 mmHg 56%
    17:00 +32°C° 0 mm 4 mps 757 mmHg 64%
    18:00 +29°C° 0 mm 4 mps 757 mmHg 72%
    19:00 +29°C° 0 mm 4 mps 758 mmHg 74%
    20:00 +28°C° 0 mm 4 mps 758 mmHg 77%
    21:00 +28°C° 0 mm 4 mps 759 mmHg 80%
    22:00 +28°C° 0 mm 4 mps 759 mmHg 80%
    23:00 +28°C° 0 mm 4 mps 759 mmHg 80%

    26 August, Saturday

    Time Temperature Precipitation Wind Pressure Humidity
    00:00 +28°C° 0 mm 4 mps 759 mmHg 81%
    01:00 +27°C° 0 mm 4 mps 758 mmHg 81%
    02:00 +27°C° 0 mm 4 mps 758 mmHg 82%
    03:00 +27°C° 0 mm 4 mps 757 mmHg 83%
    04:00 +27°C° 0 mm 4 mps 758 mmHg 83%
    05:00 +27°C° 0 mm 4 mps 758 mmHg 84%
    06:00 +27°C° 0 mm 4 mps 758 mmHg 84%
    07:00 +28°C° 0.3 mm 4 mps 759 mmHg 80%
    08:00 +29°C° 0.3 mm 4 mps 759 mmHg 75%
    09:00 +30°C° 0.3 mm 5 mps 760 mmHg 71%
    10:00 +32°C° 0 mm 4 mps 759 mmHg 63%
    11:00 +34°C° 0 mm 3 mps 759 mmHg 55%
    12:00 +36°C° 0 mm 3 mps 758 mmHg 48%
    13:00 +36°C° 0 mm 3 mps 758 mmHg 47%
    14:00 +36°C° 0 mm 3 mps 757 mmHg 46%
    15:00 +36°C° 0 mm 3 mps 756 mmHg 44%
    16:00 +35°C° 0 mm 3 mps 756 mmHg 53%
    17:00 +33°C° 0 mm 3 mps 756 mmHg 61%
    18:00 +30°C° 0 mm 3 mps 756 mmHg 69%
    19:00 +29°C° 0 mm 3 mps 757 mmHg 73%
    20:00 +28°C° 0 mm 4 mps 758 mmHg 77%
    21:00 +28°C° 0 mm 4 mps 758 mmHg 81%
    22:00 +28°C° 0 mm 4 mps 758 mmHg 81%
    23:00 +28°C° 0 mm 3 mps 758 mmHg 82%

    27 August, Sunday

    Time Temperature Precipitation Wind Pressure Humidity
    00:00 +28°C° 0 mm 3 mps 758 mmHg 82%
    01:00 +28°C° 0 mm 3 mps 758 mmHg 82%
    02:00 +28°C° 0 mm 3 mps 757 mmHg 81%
    03:00 +28°C° 0 mm 3 mps 757 mmHg 81%
    04:00 +27°C° 0.2 mm 3 mps 757 mmHg 83%
    05:00 +27°C° 0.2 mm 3 mps 758 mmHg 86%
    06:00 +26°C° 0.2 mm 3 mps 758 mmHg 88%
    07:00 +28°C° 0.2 mm 4 mps 758 mmHg 82%
    08:00 +29°C° 0.2 mm 4 mps 759 mmHg 75%
    09:00 +30°C° 0.2 mm 4 mps 759 mmHg 68%
    10:00 +33°C° 0.1 mm 4 mps 759 mmHg 61%
    11:00 +34°C° 0.1 mm 3 mps 758 mmHg 54%
    12:00 +36°C° 0.1 mm 3 mps 758 mmHg 47%
    13:00 +36°C° 0 mm 3 mps 757 mmHg 46%
    14:00 +36°C° 0 mm 3 mps 757 mmHg 45%
    15:00 +36°C° 0 mm 3 mps 756 mmHg 44%
    16:00 +35°C° 0 mm 3 mps 756 mmHg 53%
    17:00 +33°C° 0 mm 4 mps 756 mmHg 61%
    18:00 +30°C° 0 mm 4 mps 756 mmHg 69%
    19:00 +29°C° 0 mm 4 mps 757 mmHg 73%
    20:00 +29°C° 0 mm 4 mps 757 mmHg 76%
    21:00 +28°C° 0 mm 4 mps 758 mmHg 79%
    22:00 +28°C° 0 mm 4 mps 758 mmHg 80%
    23:00 +28°C° 0 mm 4 mps 758 mmHg 81%

    28 August, Monday

    Time Temperature Precipitation Wind Pressure Humidity
    00:00 +28°C° 0 mm 4 mps 758 mmHg 82%
    01:00 +28°C° 0 mm 4 mps 757 mmHg 83%
    02:00 +27°C° 0 mm 4 mps 757 mmHg 83%
    03:00 +27°C° 0 mm 4 mps 757 mmHg 84%
    04:00 +27°C° 1 mm 4 mps 757 mmHg 85%
    05:00 +27°C° 1 mm 4 mps 758 mmHg 86%
    06:00 +27°C° 1 mm 5 mps 758 mmHg 87%
    07:00 +28°C° 0.6 mm 5 mps 758 mmHg 81%
    08:00 +29°C° 0.6 mm 5 mps 759 mmHg 74%
    09:00 +30°C° 0.6 mm 5 mps 759 mmHg 67%
    10:00 +33°C° 0.2 mm 5 mps 759 mmHg 62%
    11:00 +34°C° 0.2 mm 4 mps 759 mmHg 56%
    12:00 +35°C° 0.2 mm 4 mps 758 mmHg 51%
    13:00 +35°C° 0 mm 4 mps 758 mmHg 51%
    14:00 +35°C° 0 mm 4 mps 757 mmHg 52%
    15:00 +35°C° 0 mm 4 mps 756 mmHg 52%
    16:00 +33°C° 0 mm 4 mps 757 mmHg 58%
    17:00 +32°C° 0 mm 4 mps 757 mmHg 65%
    18:00 +29°C° 0 mm 4 mps 757 mmHg 71%
    19:00 +29°C° 0 mm 4 mps 758 mmHg 73%
    20:00 +29°C° 0 mm 4 mps 758 mmHg 76%
    21:00 +28°C° 0 mm 4 mps 758 mmHg 79%
    22:00 +28°C° 0 mm 4 mps 758 mmHg 80%
    23:00 +28°C° 0 mm 4 mps 758 mmHg 81%
    Show more